Location: Trebic
(49.2170°N, 15.8830°E)
Time: 01:06:12
(UTC+01:00)

Transit 4A - Pass Details

Date: 04 November 2020
Orbit: 862 x 982 km, 66.8° (Epoch: 28 November)

Event Time Altitude Azimuth Distance (km) Brightness Sun altitude
Rises 19:15:11 0° 317° (NW) 3,691 11.7 -27.3°
Reaches altitude 10° 19:18:32 10° 334° (NNW) 2,745 10.7 -27.8°
Enters shadow 19:23:00 20° 18° (NNE) 2,082 9.6 -28.5°
